星链-2356 (STARLINK-2356 )

导读 | 豆包AI

STARLINK-2356是美国太空探索技术公司(SpaceX)研发运营的星链(Starlink)低轨互联网卫星,属于Starlink v1.5平台,于2021年3月14日发射。该卫星运行在近地轨道,近地点约558千米、远地点约560千米,轨道倾角43.007°,目前仍在服役,是星链全球卫星互联网组网的组成部分。

基本信息
目录编号:
47896
目录名称:
STARLINK-2356
国际标识:
2021-021AN
轨道中心:
EARTH
卫星名称:
星链-2356
卫星全名:
星链-2356 (STARLINK-2356 )
卫星状态:
在轨 (已飞行1826 天)
发射日期:
2021-03-14 UTC
国别 :
美国 (US)
星等 :
--
轨道信息
数据来源 国际轨道数据 AOE轨道数据
星历时间 2026-03-13T06:17:07+0800
1天前
查看轨道信息
2026-03-11T16:00:00+0800
3天前
查看轨道信息
半长轴 6853.342km 6853.323km
偏心率 0.0001437 0.0001061
轨道倾角 53.160° 53.160°
近地点辐角 85.323° 97.249°
升交点赤经 265.942° 273.354°
平近点角 274.793° 110.328°
近地点 474.22km 474.458km
远地点 476.19km 475.914km
周期 94.105分钟 94.105分钟
每日圈数 15.302035 15.3021
详细信息
固有亮度:
5
最大亮度:
2.5
卫星平台:
Starlink V1.0
覆盖范围:
全球
运营商:
太空探索技术公司
运营商所在国:
美国
制造商(研发单位):
太空探索技术公司
制造商所在国:
美国
使用方式:
暂无
卫星简介
星链(Starlink)计划是由太空探索技术公司(SpaceX)提出的一个巨型低轨卫星互联网星座项目,计划在2019年至2024年间在太空搭建由约1.2万颗卫星组成的“星链”网络,其中1584颗将部署在地球上空550千米处的近地轨道,并从2020年开始工作。该卫星仍在工作。
2D轨道图
3D轨道图
轨道高度分析图
轨道倾角分析图
轨道综合分析图
查看轨道综合分析图